San Angelo, TX

12:51 PM CDT on March 29, 2017 (GMT -0500)
San Angelo Regional-Mathis

Weather History for KSJT - November, 2012

Change the Weather History Date:

Friday, November 23, 2012

  Actual Average Record
Temperature  
Mean Temperature 51 °F 52 °F  
Max Temperature 65 °F 65 °F 85 °F (1965)
Min Temperature 37 °F 39 °F 22 °F (1937)
Degree Days  
Heating Degree Days 14 13  
Month to date heating degree days 137 209  
Since 1 July heating degree days 254 300  
Cooling Degree Days 0 0  
Month to date cooling degree days 39 15  
Year to date cooling degree days 3224 2499  
Growing Degree Days 2 (Base 50)    
Moisture  
Dew Point 33 °F    
Average Humidity 51    
Maximum Humidity 78    
Minimum Humidity 23    
Precipitation  
Precipitation 0.00 in 0.03 in 3.15 in (1913)
Month to date precipitation T 0.95  
Year to date precipitation 21.78 20.21  
Snow  
Snow 0.00 in 0.00 in 0.10 in (1957)
Month to date snowfall 0.0 0.2  
Since 1 July snowfall T 0.2  
Snow Depth 0.00 in    
Sea Level Pressure  
Sea Level Pressure 30.34 in    
Wind  
Wind Speed 13 mph (NNE)    
Max Wind Speed 26 mph    
Max Gust Speed 35 mph    
Visibility 10 miles    
Events      
T = Trace of Precipitation, MM = Missing Value Source: NWS Daily Summary

Daily Weather History Graph

Daily Weather History Graph

Search for Another Location

Airport or City:

Trip Planner

Search our weather history database for the weather conditions in past years. The results will help you decide how hot, cold, wet, or windy it might be!

Date:

Astronomy

Nov. 23, 2012 Rise Set
Actual Time 7:16 AM CST 5:40 PM CST
Civil Twilight 6:50 AM CST 6:06 PM CST
Nautical Twilight 6:21 AM CST 6:35 PM CST
Astronomical Twilight 5:51 AM CST 7:04 PM CST
Moon 2:42 PM CST (11/23) 2:52 AM CST (11/23)
Length of Visible Light 11h 15m
Length of Day
10h 23m
Waxing Gibbous, 80% of the Moon is Illuminated
Nov 23
Waxing Gibbous
Nov 28
Full
Dec 6
Last Quarter
Dec 13
New
Dec 19
First Quarter

Hourly Weather History & Observations

Time (CST) Temp. Windchill Dew Point Humidity Pressure Visibility Wind Dir Wind Speed Gust Speed Precip Events Conditions
12:51 AM 60.1 °F - 54.0 °F 80% 30.08 in 10.0 mi SSW 9.2 mph - N/A   Clear
1:51 AM 63.0 °F - 55.9 °F 78% 30.12 in 10.0 mi WNW 6.9 mph - N/A   Clear
2:27 AM 62.6 °F - 55.4 °F 77% 30.19 in 10.0 mi NNW 6.9 mph - N/A   Mostly Cloudy
2:51 AM 64.0 °F - 57.0 °F 78% 30.15 in 10.0 mi NNW 3.5 mph - N/A   Overcast
3:51 AM 63.0 °F - 39.0 °F 41% 30.18 in 10.0 mi North 17.3 mph 21.9 mph N/A   Overcast
4:51 AM 60.1 °F - 37.0 °F 42% 30.22 in 10.0 mi North 15.0 mph - N/A   Overcast
5:51 AM 57.9 °F - 35.1 °F 42% 30.26 in 10.0 mi North 18.4 mph - N/A   Overcast
6:51 AM 55.9 °F - 35.1 °F 45% 30.30 in 10.0 mi North 15.0 mph - N/A   Overcast
7:51 AM 55.0 °F - 35.1 °F 47% 30.33 in 10.0 mi NNE 12.7 mph - N/A   Overcast
8:51 AM 55.0 °F - 34.0 °F 45% 30.37 in 10.0 mi NNE 19.6 mph 27.6 mph N/A   Clear
9:51 AM 57.0 °F - 33.1 °F 40% 30.40 in 10.0 mi NNE 20.7 mph 31.1 mph N/A   Clear
10:51 AM 57.0 °F - 30.9 °F 37% 30.42 in 10.0 mi NNE 25.3 mph 29.9 mph N/A   Overcast
11:51 AM 57.9 °F - 30.9 °F 36% 30.43 in 10.0 mi NNE 15.0 mph - N/A   Overcast
12:51 PM 60.1 °F - 28.9 °F 31% 30.41 in 10.0 mi NNE 16.1 mph 23.0 mph N/A   Overcast
1:51 PM 61.0 °F - 30.0 °F 31% 30.39 in 10.0 mi NNE 13.8 mph 21.9 mph N/A   Overcast
2:51 PM 61.0 °F - 27.0 °F 27% 30.38 in 10.0 mi NNE 13.8 mph - N/A   Overcast
4:51 PM 60.1 °F - 25.0 °F 26% 30.38 in 10.0 mi NE 10.4 mph - N/A   Mostly Cloudy
5:51 PM 57.9 °F - 24.1 °F 27% 30.39 in 10.0 mi NNE 15.0 mph - N/A   Partly Cloudy
6:51 PM 55.0 °F - 24.1 °F 30% 30.41 in 10.0 mi NNE 11.5 mph - N/A   Clear
7:51 PM 52.0 °F - 24.1 °F 34% 30.43 in 10.0 mi NNE 10.4 mph - N/A   Clear
8:51 PM 50.0 °F - 24.1 °F 36% 30.43 in 10.0 mi NNE 8.1 mph - N/A   Clear
9:51 PM 48.0 °F - 24.1 °F 39% 30.44 in 10.0 mi NNE 9.2 mph - N/A   Clear
10:51 PM 46.0 °F 43.9 °F 23.0 °F 40% 30.45 in 10.0 mi NE 4.6 mph - N/A   Clear
11:51 PM 39.9 °F - 23.0 °F 51% 30.45 in 10.0 mi Calm Calm - N/A   Clear